| time (UTC) | temp F | wind direction | speed knots | gust knots | rain 1hr in | rain 24hr in | rain mn in | humidity % | barometer mb |
| 20260504175050 | 68 | 305 | 5.2 | 10.4 | 0.00 | 0.00 | 0.00 | 35 | 1036.9 |
| 20260504174549 | 68 | 272 | 2.6 | 5.2 | 0.00 | 0.00 | 0.00 | 40 | 1037.0 |
| 20260504174045 | 68 | 259 | 5.2 | 5.2 | 0.00 | 0.00 | 0.00 | 37 | 1037.0 |
| 20260504173542 | 68 | 322 | 3.5 | 5.2 | 0.00 | 0.00 | 0.00 | 37 | 1037.3 |
| 20260504173039 | 68 | 257 | 0.9 | 4.3 | 0.00 | 0.00 | 0.00 | 36 | 1037.2 |
| 20260504172535 | 67 | 298 | 2.6 | 6.1 | 0.00 | 0.00 | 0.00 | 35 | 1037.2 |
| 20260504172032 | 67 | 258 | 5.2 | 9.6 | 0.00 | 0.00 | 0.00 | 34 | 1037.2 |
| 20260504171529 | 67 | 236 | 1.7 | 5.2 | 0.00 | 0.00 | 0.00 | 34 | 1037.3 |
| 20260504171026 | 66 | 299 | 5.2 | 8.7 | 0.00 | 0.00 | 0.00 | 34 | 1037.2 |
| 20260504170522 | 67 | 289 | 4.3 | 4.3 | 0.00 | 0.00 | 0.00 | 36 | 1037.3 |
| 20260504160442 | 67 | 253 | 1.7 | 3.5 | 0.00 | 0.00 | 0.00 | 40 | 1037.7 |
| 20260504150906 | 63 | 258 | 4.3 | 7.0 | 0.00 | 0.00 | 0.00 | 36 | 1038.6 |
| 20260504150402 | 62 | 345 | 4.3 | 9.6 | 0.00 | 0.00 | 0.00 | 37 | 1038.3 |
| 20260504141332 | 62 | 103 | 2.6 | 7.0 | 0.00 | 0.00 | 0.00 | 41 | 1038.7 |
| 20260504140829 | 62 | 193 | 2.6 | 7.8 | 0.00 | 0.00 | 0.00 | 38 | 1038.6 |
| 20260504140324 | 62 | 317 | 1.7 | 4.3 | 0.00 | 0.00 | 0.00 | 39 | 1038.8 |
| 20260504130753 | 57 | 308 | 1.7 | 5.2 | 0.00 | 0.00 | 0.00 | 50 | 1039.1 |
| 20260504130249 | 56 | 322 | 1.7 | 4.3 | 0.00 | 0.00 | 0.00 | 46 | 1039.4 |
| 20260504120213 | 52 | 301 | 1.7 | 3.5 | 0.00 | 0.00 | 0.00 | 55 | 1039.5 |
| 20260504110640 | 47 | 275 | 3.5 | 3.5 | 0.00 | 0.00 | 0.00 | 61 | 1039.3 |
| 20260504110137 | 47 | 289 | 3.5 | 4.3 | 0.00 | 0.00 | 0.00 | 59 | 1039.5 |
| 20260504100557 | 45 | 303 | 3.5 | 3.5 | 0.00 | 0.00 | 0.00 | 61 | 1039.3 |
| 20260504081951 | 46 | 285 | 2.6 | 5.2 | 0.00 | 0.00 | 0.00 | 59 | 1038.7 |
| 20260504081448 | 46 | 298 | 3.5 | 5.2 | 0.00 | 0.00 | 0.00 | 58 | 1038.5 |
| 20260504080943 | 45 | 303 | 3.5 | 3.5 | 0.00 | 0.00 | 0.00 | 59 | 1038.6 |
| 20260504080440 | 45 | 278 | 2.6 | 3.5 | 0.00 | 0.00 | 0.00 | 58 | 1038.7 |
| 20260504070403 | 44 | 286 | 1.7 | 2.6 | 0.00 | 0.00 | 0.00 | 58 | 1038.5 |
| 20260504050738 | 42 | 336 | 1.7 | 1.7 | 0.00 | 0.00 | 0.00 | 66 | 1038.4 |
| 20260504050235 | 42 | 297 | 1.7 | 2.6 | 0.00 | 0.00 | 0.00 | 64 | 1038.5 |
| 20260504045732 | 42 | 317 | 1.7 | 2.6 | 0.00 | 0.00 | 0.00 | 65 | 1038.4 |
| 20260504045227 | 42 | 286 | 2.6 | 3.5 | 0.00 | 0.00 | 0.00 | 66 | 1038.5 |
| 20260504044725 | 42 | 288 | 3.5 | 3.5 | 0.00 | 0.00 | 0.00 | 63 | 1038.6 |
| 20260504044222 | 42 | 307 | 1.7 | 2.6 | 0.00 | 0.00 | 0.00 | 63 | 1038.3 |
| 20260504043719 | 42 | 345 | 1.7 | 1.7 | 0.00 | 0.00 | 0.00 | 62 | 1038.5 |
| 20260504043215 | 43 | 340 | 1.7 | 3.5 | 0.00 | 0.00 | 0.00 | 63 | 1038.6 |
| 20260504042713 | 42 | 295 | 1.7 | 2.6 | 0.00 | 0.00 | 0.00 | 62 | 1038.2 |
| 20260504042209 | 42 | 290 | 2.6 | 3.5 | 0.00 | 0.00 | 0.00 | 63 | 1038.5 |
| 20260504041706 | 42 | 306 | 1.7 | 1.7 | 0.00 | 0.00 | 0.00 | 62 | 1038.5 |
| 20260504041201 | 43 | 331 | 1.7 | 2.6 | 0.00 | 0.00 | 0.00 | 64 | 1038.5 |
| 20260504040658 | 43 | 297 | 0.9 | 2.6 | 0.00 | 0.00 | 0.00 | 62 | 1038.4 |
| 20260504040155 | 43 | 285 | 2.6 | 3.5 | 0.00 | 0.00 | 0.00 | 63 | 1038.5 |
| 20260504035652 | 43 | 283 | 3.5 | 3.5 | 0.00 | 0.00 | 0.00 | 63 | 1038.4 |
| 20260504035149 | 43 | 315 | 2.6 | 2.6 | 0.00 | 0.00 | 0.00 | 62 | 1038.4 |
| 20260504034647 | 43 | 315 | 0.9 | 2.6 | 0.00 | 0.00 | 0.00 | 64 | 1038.4 |
| 20260504034143 | 43 | 344 | 0.9 | 1.7 | 0.00 | 0.00 | 0.00 | 62 | 1038.3 |
| 20260504033641 | 43 | 328 | 0.9 | 3.5 | 0.00 | 0.00 | 0.00 | 64 | 1038.3 |
| 20260504033138 | 42 | 289 | 3.5 | 3.5 | 0.00 | 0.00 | 0.00 | 60 | 1038.1 |
| 20260504032635 | 42 | 325 | 1.7 | 1.7 | 0.00 | 0.00 | 0.00 | 63 | 1038.3 |
| 20260504032132 | 42 | 311 | 1.7 | 2.6 | 0.00 | 0.00 | 0.00 | 63 | 1038.3 |
| 20260504031629 | 43 | 329 | 1.7 | 2.6 | 0.00 | 0.00 | 0.00 | 61 | 1038.3 |
| 20260504031125 | 43 | 295 | 1.7 | 3.5 | 0.00 | 0.00 | 0.00 | 61 | 1038.3 |
| 20260504030622 | 43 | 275 | 1.7 | 3.5 | 0.00 | 0.00 | 0.00 | 59 | 1038.2 |
| 20260504030119 | 43 | 312 | 1.7 | 2.6 | 0.00 | 0.00 | 0.00 | 57 | 1038.2 |
| 20260504025616 | 43 | 307 | 0.9 | 2.6 | 0.00 | 0.00 | 0.00 | 55 | 1038.1 |
| 20260504025113 | 43 | 318 | 0.9 | 2.6 | 0.00 | 0.00 | 0.00 | 59 | 1038.3 |
| 20260504024610 | 43 | 302 | 1.7 | 2.6 | 0.00 | 0.00 | 0.00 | 61 | 1038.2 |
| 20260504024107 | 43 | 282 | 2.6 | 3.5 | 0.00 | 0.00 | 0.00 | 61 | 1038.3 |
| 20260504023603 | 44 | 300 | 2.6 | 3.5 | 0.00 | 0.00 | 0.00 | 62 | 1038.2 |
| 20260504023059 | 43 | 296 | 1.7 | 3.5 | 0.00 | 0.00 | 0.00 | 58 | 1038.2 |
| 20260504022555 | 43 | 326 | 1.7 | 2.6 | 0.00 | 0.00 | 0.00 | 61 | 1038.1 |
| 20260504022051 | 43 | 289 | 1.7 | 1.7 | 0.00 | 0.00 | 0.00 | 61 | 1038.1 |
| 20260504021549 | 43 | 310 | 1.7 | 3.5 | 0.00 | 0.00 | 0.00 | 60 | 1038.2 |
| 20260504021046 | 43 | 275 | 3.5 | 4.3 | 0.00 | 0.00 | 0.00 | 55 | 1038.3 |
| 20260504020543 | 44 | 340 | 0.9 | 2.6 | 0.00 | 0.00 | 0.00 | 57 | 1038.2 |
| 20260504020039 | 44 | 325 | 1.7 | 2.6 | 0.00 | 0.00 | 0.00 | 56 | 1038.2 |
| 20260504015536 | 44 | 319 | 1.7 | 2.6 | 0.00 | 0.00 | 0.00 | 58 | 1038.2 |
| 20260504015032 | 44 | 295 | 2.6 | 2.6 | 0.00 | 0.00 | 0.00 | 53 | 1038.2 |
| 20260504014528 | 44 | 300 | 2.6 | 3.5 | 0.00 | 0.00 | 0.00 | 53 | 1038.2 |
| 20260504014025 | 44 | 276 | 2.6 | 3.5 | 0.00 | 0.00 | 0.00 | 53 | 1038.0 |
| 20260504013523 | 44 | 318 | 0.9 | 1.7 | 0.00 | 0.00 | 0.00 | 56 | 1037.8 |
| 20260504013020 | 44 | 328 | 1.7 | 1.7 | 0.00 | 0.00 | 0.00 | 56 | 1038.0 |
| 20260504012517 | 44 | 324 | 1.7 | 2.6 | 0.00 | 0.00 | 0.00 | 58 | 1037.9 |
| 20260504012015 | 45 | 312 | 1.7 | 1.7 | 0.00 | 0.00 | 0.00 | 54 | 1037.8 |
| 20260504011511 | 45 | 315 | 1.7 | 3.5 | 0.00 | 0.00 | 0.00 | 54 | 1037.8 |
| 20260504011008 | 45 | 303 | 1.7 | 2.6 | 0.00 | 0.00 | 0.00 | 55 | 1037.7 |
| 20260504010503 | 45 | 333 | 1.7 | 1.7 | 0.00 | 0.00 | 0.00 | 56 | 1037.7 |
| 20260504005959 | 46 | 321 | 1.7 | 2.6 | 0.00 | 0.00 | 0.00 | 58 | 1037.5 |
| 20260504005456 | 46 | 304 | 1.7 | 2.6 | 0.00 | 0.00 | 0.00 | 55 | 1037.3 |
| 20260504004954 | 46 | 302 | 1.7 | 2.6 | 0.00 | 0.00 | 0.00 | 55 | 1037.4 |
| 20260504004451 | 46 | 310 | 1.7 | 2.6 | 0.00 | 0.00 | 0.00 | 52 | 1037.3 |
| 20260504003948 | 46 | 305 | 1.7 | 2.6 | 0.00 | 0.00 | 0.00 | 50 | 1037.4 |
| 20260504003444 | 46 | 330 | 0.9 | 2.6 | 0.00 | 0.00 | 0.00 | 53 | 1037.2 |
| 20260504002941 | 46 | 288 | 3.5 | 3.5 | 0.00 | 0.00 | 0.00 | 50 | 1037.0 |
| 20260504002438 | 46 | 322 | 1.7 | 1.7 | 0.00 | 0.00 | 0.00 | 54 | 1036.9 |
| 20260504001936 | 46 | 298 | 1.7 | 1.7 | 0.00 | 0.00 | 0.00 | 50 | 1037.0 |
| 20260504001433 | 46 | 289 | 1.7 | 1.7 | 0.00 | 0.00 | 0.00 | 50 | 1037.0 |
| 20260504000929 | 46 | 293 | 1.7 | 2.6 | 0.00 | 0.00 | 0.00 | 49 | 1036.9 |
| 20260504000426 | 47 | 309 | 1.7 | 1.7 | 0.00 | 0.00 | 0.00 | 49 | 1036.8 |
| 20260503235924 | 47 | 336 | 1.7 | 1.7 | 0.00 | 0.00 | 0.00 | 48 | 1036.8 |
| 20260503235422 | 48 | 304 | 1.7 | 2.6 | 0.00 | 0.00 | 0.00 | 44 | 1036.6 |
| 20260503234919 | 49 | 258 | 0.0 | 1.7 | 0.00 | 0.00 | 0.00 | 41 | 1036.6 |
| 20260503234416 | 49 | 261 | 1.7 | 2.6 | 0.00 | 0.00 | 0.00 | 43 | 1036.5 |
| 20260503233914 | 49 | 316 | 1.7 | 1.7 | 0.00 | 0.00 | 0.00 | 43 | 1036.6 |
| 20260503233410 | 50 | 267 | 0.9 | 1.7 | 0.00 | 0.00 | 0.00 | 41 | 1036.4 |
| 20260503232907 | 51 | 276 | 0.9 | 2.6 | 0.00 | 0.00 | 0.00 | 39 | 1036.2 |
| 20260503232404 | 51 | 262 | 0.9 | 1.7 | 0.00 | 0.00 | 0.00 | 41 | 1036.4 |
| 20260503231902 | 51 | 275 | 0.0 | 1.7 | 0.00 | 0.00 | 0.00 | 39 | 1036.5 |
| 20260503231359 | 51 | 17 | 0.0 | 1.7 | 0.00 | 0.00 | 0.00 | 39 | 1036.6 |
| 20260503230855 | 52 | 2 | 3.5 | 6.1 | 0.00 | 0.00 | 0.00 | 37 | 1036.3 |
| 20260503230352 | 52 | 29 | 3.5 | 4.3 | 0.00 | 0.00 | 0.00 | 37 | 1036.5 |
| 20260503225850 | 52 | 8 | 2.6 | 3.5 | 0.00 | 0.00 | 0.00 | 38 | 1036.3 |
| 20260503225345 | 52 | 314 | 1.7 | 5.2 | 0.00 | 0.00 | 0.00 | 38 | 1036.3 |
| 20260503224842 | 52 | 18 | 1.7 | 9.6 | 0.00 | 0.00 | 0.00 | 36 | 1036.2 |
| 20260503224339 | 52 | 297 | 4.3 | 4.3 | 0.00 | 0.00 | 0.00 | 39 | 1036.4 |
| 20260503223837 | 52 | 8 | 4.3 | 5.2 | 0.00 | 0.00 | 0.00 | 38 | 1036.3 |
| 20260503223334 | 52 | 75 | 2.6 | 7.0 | 0.00 | 0.00 | 0.00 | 36 | 1036.1 |
| 20260503222830 | 52 | 334 | 1.7 | 7.8 | 0.00 | 0.00 | 0.00 | 37 | 1036.2 |
| 20260503222328 | 52 | 337 | 1.7 | 7.0 | 0.00 | 0.00 | 0.00 | 42 | 1036.1 |
| 20260503221826 | 52 | 298 | 1.7 | 7.8 | 0.00 | 0.00 | 0.00 | 37 | 1036.1 |
| 20260503221325 | 53 | 294 | 2.6 | 13.0 | 0.00 | 0.00 | 0.00 | 37 | 1036.2 |
| 20260503220820 | 53 | 299 | 4.3 | 4.3 | 0.00 | 0.00 | 0.00 | 36 | 1036.0 |
| 20260503220317 | 53 | 88 | 4.3 | 4.3 | 0.00 | 0.00 | 0.00 | 37 | 1036.0 |
| 20260503215814 | 52 | 310 | 5.2 | 14.8 | 0.00 | 0.00 | 0.00 | 37 | 1036.0 |
| 20260503215311 | 52 | 57 | 5.2 | 5.2 | 0.00 | 0.00 | 0.00 | 38 | 1036.1 |
| 20260503214809 | 52 | 125 | 3.5 | 6.1 | 0.00 | 0.00 | 0.00 | 38 | 1036.0 |
| 20260503214306 | 51 | 340 | 2.6 | 8.7 | 0.00 | 0.00 | 0.00 | 38 | 1036.2 |
| 20260503213804 | 52 | 36 | 2.6 | 12.2 | 0.00 | 0.00 | 0.00 | 37 | 1036.1 |
| 20260503213301 | 52 | 349 | 6.1 | 11.3 | 0.00 | 0.00 | 0.00 | 37 | 1036.0 |
| 20260503212757 | 52 | 32 | 4.3 | 13.0 | 0.00 | 0.00 | 0.00 | 37 | 1036.3 |
| 20260503212255 | 52 | 29 | 7.0 | 10.4 | 0.00 | 0.00 | 0.00 | 38 | 1035.9 |
| 20260503211752 | 52 | 297 | 3.5 | 5.2 | 0.00 | 0.00 | 0.00 | 40 | 1036.0 |
| 20260503211248 | 52 | 353 | 3.5 | 11.3 | 0.00 | 0.00 | 0.00 | 38 | 1036.1 |
| 20260503210744 | 52 | 4 | 5.2 | 12.2 | 0.00 | 0.00 | 0.00 | 39 | 1036.0 |
| 20260503210242 | 51 | 321 | 3.5 | 6.1 | 0.00 | 0.00 | 0.00 | 39 | 1036.0 |
| 20260503205742 | 51 | 341 | 5.2 | 14.8 | 0.00 | 0.00 | 0.00 | 39 | 1036.3 |
| 20260503205239 | 51 | 29 | 3.5 | 8.7 | 0.00 | 0.00 | 0.00 | 39 | 1035.9 |
| 20260503204735 | 51 | 324 | 5.2 | 9.6 | 0.00 | 0.00 | 0.00 | 39 | 1035.9 |
| 20260503204233 | 51 | 21 | 9.6 | 20.9 | 0.00 | 0.00 | 0.00 | 37 | 1035.9 |
| 20260503203730 | 51 | 19 | 4.3 | 15.6 | 0.00 | 0.00 | 0.00 | 38 | 1036.0 |
| 20260503203228 | 52 | 262 | 4.3 | 11.3 | 0.00 | 0.00 | 0.00 | 39 | 1035.8 |
| 20260503202725 | 54 | 7 | 3.5 | 6.1 | 0.00 | 0.00 | 0.00 | 38 | 1036.0 |
| 20260503202223 | 54 | 280 | 1.7 | 5.2 | 0.00 | 0.00 | 0.00 | 39 | 1035.9 |
| 20260503201720 | 52 | 319 | 1.7 | 7.0 | 0.00 | 0.00 | 0.00 | 37 | 1036.0 |
| 20260503201217 | 52 | 286 | 3.5 | 7.8 | 0.00 | 0.00 | 0.00 | 39 | 1036.1 |
| 20260503200713 | 51 | 359 | 2.6 | 16.5 | 0.00 | 0.00 | 0.00 | 41 | 1036.0 |
| 20260503200210 | 51 | 338 | 1.7 | 11.3 | 0.00 | 0.00 | 0.00 | 40 | 1036.0 |
| 20260503195707 | 52 | 278 | 4.3 | 11.3 | 0.00 | 0.00 | 0.00 | 40 | 1035.8 |
| 20260503195204 | 52 | 60 | 3.5 | 14.8 | 0.00 | 0.00 | 0.00 | 40 | 1035.7 |
| 20260503194701 | 51 | 357 | 4.3 | 14.8 | 0.00 | 0.00 | 0.00 | 39 | 1035.9 |
| 20260503194156 | 51 | 7 | 3.5 | 13.0 | 0.00 | 0.00 | 0.00 | 40 | 1035.8 |
| 20260503193653 | 52 | 17 | 12.2 | 15.6 | 0.00 | 0.00 | 0.00 | 38 | 1035.9 |
| 20260503193149 | 52 | 295 | 7.8 | 17.4 | 0.00 | 0.00 | 0.00 | 40 | 1036.0 |
| 20260503192645 | 51 | 8 | 7.0 | 20.0 | 0.00 | 0.00 | 0.00 | 41 | 1035.8 |
| 20260503192140 | 50 | 48 | 2.6 | 14.8 | 0.00 | 0.00 | 0.00 | 41 | 1035.8 |
| 20260503191637 | 51 | 13 | 3.5 | 13.9 | 0.00 | 0.00 | 0.00 | 41 | 1036.0 |
| 20260503191135 | 53 | 349 | 7.8 | 8.7 | 0.00 | 0.00 | 0.00 | 37 | 1035.8 |
| 20260503190631 | 54 | 0 | 3.5 | 5.2 | 0.00 | 0.00 | 0.00 | 38 | 1035.8 |
| 20260503190128 | 53 | 309 | 4.3 | 7.8 | 0.00 | 0.00 | 0.00 | 39 | 1035.9 |
| 20260503185625 | 54 | 43 | 10.4 | 11.3 | 0.00 | 0.00 | 0.00 | 37 | 1035.7 |
| 20260503185120 | 54 | 322 | 3.5 | 6.1 | 0.00 | 0.00 | 0.00 | 38 | 1035.7 |
| 20260503184615 | 53 | 24 | 3.5 | 14.8 | 0.00 | 0.00 | 0.00 | 38 | 1035.9 |
| 20260503184112 | 52 | 12 | 4.3 | 13.9 | 0.00 | 0.00 | 0.00 | 39 | 1035.6 |
| 20260503183609 | 51 | 1 | 8.7 | 11.3 | 0.00 | 0.00 | 0.00 | 39 | 1035.7 |
| 20260503183106 | 52 | 8 | 7.0 | 17.4 | 0.00 | 0.00 | 0.00 | 39 | 1035.9 |
| 20260503182605 | 52 | 324 | 7.0 | 11.3 | 0.00 | 0.00 | 0.00 | 37 | 1035.8 |
| 20260503182102 | 50 | 20 | 4.3 | 25.2 | 0.00 | 0.00 | 0.00 | 39 | 1035.9 |
| 20260503181559 | 52 | 20 | 7.0 | 13.0 | 0.00 | 0.00 | 0.00 | 39 | 1035.8 |
| 20260503181055 | 51 | 345 | 3.5 | 11.3 | 0.00 | 0.00 | 0.00 | 39 | 1035.7 |
| 20260503180553 | 52 | 20 | 7.8 | 14.8 | 0.00 | 0.00 | 0.00 | 37 | 1035.9 |
| 20260503180050 | 51 | 317 | 4.3 | 7.8 | 0.00 | 0.00 | 0.00 | 40 | 1035.8 |
| 20260503175547 | 51 | 29 | 1.7 | 7.0 | 0.00 | 0.00 | 0.00 | 44 | 1035.9 |